Flag for U.S.A. Weather past 2 weeks in New Salem, North Dakota, U.S.A.

Now
80 °F

Passing clouds.


Feels Like: 80 °F
Forecast: 57 / 80 °F
Wind: 3 mph from North

Location: Bismarck Municipal Airport

Current Time: Jul 30, 2014 at 1:02:02 PM

Latest Report: Jul 30, 2014 at 11:52 AM


Visibility: 10 mi

Pressure: 30.14 "Hg

Humidity: 44%

Dew point: 56 °F

Location of New SalemLocation

Historic Weather in New Salem — Graph

°F

New Salem temperature yesterday

Maximum temperature yesterday: 81 °F (at 4:52 PM)
Minimum temperature yesterday: 50 °F (at 3:52 AM)
Average temperature yesterday: 66 °F

Past Weeks' High & Low Weather Summary

 TemperatureHumidityPressure
High94 °F (Jul 20, 4:52 PM)100% (Jul 19, 6:52 AM)30.36 "Hg (Jul 19, 6:52 AM)
Low44 °F (Jul 28, 6:52 AM)28% (Jul 25, 2:52 PM)29.62 "Hg (Jul 20, 5:52 AM)
Average70 °F66%29.97 "Hg
* Reported Jul 15 11:52 AM — Jul 30 11:52 AM, New Salem, Weather by CustomWeather, © 2014

Note: Actual official high and low records may vary slightly from our data, if they occured in-between our weather recording intervals... More about our weather records

Advertising

New Salem weather history for previous 24 hours

 ConditionsComfort  
Time TempWeatherWind HumidityBarometerVisibility
11:52 AM
Jul 30
80 °FPassing clouds.3 mph44%30.14 "Hg10 mi
10:52 AM77 °FSunny.3 mph52%30.15 "Hg10 mi
9:52 AM70 °FSunny.3 mph64%30.16 "Hg10 mi
8:52 AM64 °FSunny.5 mph75%30.16 "Hg10 mi
7:52 AM60 °FSunny.3 mph90%30.16 "Hg10 mi
6:52 AM54 °FClear.No wind33%30.16 "Hg7 mi
5:52 AM54 °FClear.3 mph40%30.16 "Hg10 mi
4:52 AM55 °FClear.3 mph37%30.15 "Hg10 mi
3:52 AM57 °FClear.No wind36%30.15 "Hg10 mi
2:52 AM58 °FClear.3 mph36%30.16 "Hg10 mi
1:52 AM61 °FClear.No wind32%30.15 "Hg10 mi
12:52 AM63 °FClear.3 mph81%30.15 "Hg10 mi
11:52 PM
Jul 29
65 °FClear.6 mph78%30.14 "Hg10 mi
10:52 PM66 °FClear.7 mph75%30.14 "Hg10 mi
9:52 PM68 °FScattered clouds.7 mph70%30.13 "Hg10 mi
8:52 PM73 °FSunny.7 mph59%30.12 "Hg10 mi
7:52 PM76 °FScattered clouds.7 mph52%30.12 "Hg10 mi
6:52 PM78 °FPartly sunny.13 mph45%30.13 "Hg10 mi
5:52 PM80 °FSunny.6 mph44%30.13 "Hg10 mi
4:52 PM81 °FBroken clouds.8 mph42%30.15 "Hg10 mi
3:52 PM78 °FScattered clouds.6 mph43%30.17 "Hg10 mi
2:52 PM77 °FOvercast.5 mph44%30.18 "Hg10 mi
1:52 PM79 °FScattered clouds.No wind41%30.19 "Hg10 mi
Weather by CustomWeather, © 2014

See weather overviewHow to use our weather pages